User: anonymous   Login
Location: Asheville, NC
(35.6000°N, 82.5500°W)
Time: 20:14:31
(UTC-04:00)
Language:

ZACube-1 - Orbit

View from above orbital plane
View from above orbital plane
View from above satellite
View from above satellite

Ground track
Ground track

The orbit data is extracted from the following two-line orbital elements,

1 39417U 13066B   18115.07200717  .00000231  00000-0  35617-4 0  9992
2 39417  97.5923 146.5324 0058255 330.5273  29.2660 14.80914320238936
Epoch (UTC): 25 April 2018 01:43:41
Eccentricity: 0.0058255
inclination: 97.5923°
perigee height: 585 km
apogee height: 667 km
right ascension of ascending node: 146.5324°
argument of perigee: 330.5273°
revolutions per day: 14.80914320
mean anomaly at epoch: 29.2660°
orbit number at epoch: 23893

The dashed part of the orbit path shows where the satellite is in the earth's shadow,  

DLR